H1 CPF 2 NER 2023 11 8 9 312 01 glonass143 H2 2007501 9143 46805 2023 11 8 0 0 0 2023 11 11 23 45 0 900 1 1 0 0 0 1 H9 10 0 60256 0.00000 0 19643167.727 -7697232.236 14335571.380 10 0 60256 900.00000 0 21233516.046 -7943490.566 11686270.675 10 0 60256 1800.00000 0 22465433.254 -8254861.897 8809890.926 10 0 60256 2700.00000 0 23315105.484 -8577912.070 5762286.067 10 0 60256 3600.00000 0 23771698.002 -8856753.069 2602665.749 10 0 60256 4500.00000 0 23837680.883 -9035619.313 -607556.998 10 0 60256 5400.00000 0 23528612.557 -9061449.854 -3805963.496 10 0 60256 6300.00000 0 22872390.293 -8886366.265 -6930348.669 10 0 60256 7200.00000 0 21907999.428 -8469940.193 -9919937.280 10 0 60256 8100.00000 0 20683814.213 -7781153.304 -12716572.695 10 0 60256 9000.00000 0 19255522.338 -6799965.399 -15265854.263 10 0 60256 9900.00000 0 17683761.088 -5518423.094 -17518200.439 10 0 60256 10800.00000 0 16031565.172 -3941260.975 -19429816.547 10 0 60256 11700.00000 0 14361734.061 -2085968.687 -20963548.115 10 0 60256 12600.00000 0 12734229.837 17679.960 -22089603.146 10 0 60256 13500.00000 0 11203714.949 2328617.084 -22786129.551 10 0 60256 14400.00000 0 9817333.008 4795949.450 -23039636.843 10 0 60256 15300.00000 0 8612825.308 7360845.126 -22845254.361 10 0 60256 16200.00000 0 7617061.316 9958759.990 -22206821.447 10 0 60256 17100.00000 0 6845043.785 12521911.834 -21136808.228 10 0 60256 18000.00000 0 6299429.135 14981899.473 -19656068.845 10 0 60256 18900.00000 0 5970581.978 17272358.271 -17793432.123 10 0 60256 19800.00000 0 5837160.262 19331541.979 -15585137.723 10 0 60256 20700.00000 0 5867205.177 21104723.749 -13074128.796 10 0 60256 21600.00000 0 6019688.818 22546316.781 -10309214.880 10 0 60256 22500.00000 0 6246453.344 23621626.710 -7344121.343 10 0 60256 23400.00000 0 6494458.936 24308163.180 -4236443.947 10 0 60256 24300.00000 0 6708244.891 24596456.543 -1046528.982 10 0 60256 25200.00000 0 6832499.292 24490346.317 2163699.084 10 0 60256 26100.00000 0 6814628.138 24006730.186 5331939.432 10 0 60256 27000.00000 0 6607214.992 23174784.912 8396722.689 10 0 60256 27900.00000 0 6170266.902 22034692.598 11298601.168 10 0 60256 28800.00000 0 5473151.441 20635926.349 13981298.460 10 0 60256 29700.00000 0 4496142.807 19035167.633 16392796.307 10 0 60256 30600.00000 0 3231511.352 17293942.803 18486338.076 10 0 60256 31500.00000 0 1684110.086 15476077.670 20221329.884 10 0 60256 32400.00000 0 -128567.361 13645076.318 21564122.597 10 0 60256 33300.00000 0 -2176860.870 11861533.176 22488660.208 10 0 60256 34200.00000 0 -4419931.538 10180685.746 22976982.655 10 0 60256 35100.00000 0 -6807223.255 8650209.357 23019573.805 10 0 60256 36000.00000 0 -9280338.831 7308345.129 22615548.110 10 0 60256 36900.00000 0 -11775254.166 6182438.529 21772672.275 10 0 60256 37800.00000 0 -14224779.867 5287948.848 20507221.179 10 0 60256 38700.00000 0 -16561169.260 4627970.455 18843670.228 10 0 60256 39600.00000 0 -18718765.296 4193285.479 16814229.277 10 0 60256 40500.00000 0 -20636576.945 3962945.440 14458226.234 10 0 60256 41400.00000 0 -22260678.024 3905357.257 11821351.295 10 0 60256 42300.00000 0 -23546328.476 3979827.776 8954775.708 10 0 60256 43200.00000 0 -24459729.250 4138501.599 5914161.501 10 0 60256 44100.00000 0 -24979336.930 4328610.105 2758581.071 10 0 60256 45000.00000 0 -25096682.524 4494936.172 -450632.376 10 0 60256 45900.00000 0 -24816659.571 4582389.631 -3651080.912 10 0 60256 46800.00000 0 -24157269.136 4538583.523 -6780520.649 10 0 60256 47700.00000 0 -23148832.247 4316300.998 -9778078.729 10 0 60256 48600.00000 0 -21832702.912 3875747.192 -12585443.975 10 0 60256 49500.00000 0 -20259536.085 3186489.492 -15148007.286 10 0 60256 50400.00000 0 -18487183.708 2229002.814 -17415928.853 10 0 60256 51300.00000 0 -16578307.751 995753.390 -19345110.977 10 0 60256 52200.00000 0 -14597810.862 -508225.898 -20898057.324 10 0 60256 53100.00000 0 -12610192.805 -2265293.911 -22044601.892 10 0 60256 54000.00000 0 -10676943.601 -4245696.169 -22762493.743 10 0 60256 54900.00000 0 -8854082.450 -6408576.417 -23037826.502 10 0 60256 55800.00000 0 -7189945.077 -8703463.256 -22865304.700 10 0 60256 56700.00000 0 -5723311.391 -11072170.375 -22248342.251 10 0 60256 57600.00000 0 -4481950.837 -13451031.613 -21198991.548 10 0 60256 58500.00000 0 -3481645.151 -15773378.089 -19737704.842 10 0 60256 59400.00000 0 -2725728.084 -17972154.491 -17892932.762 10 0 60256 60300.00000 0 -2205159.940 -19982565.844 -15700567.854 10 0 60256 61200.00000 0 -1899132.319 -21744644.644 -13203244.000 10 0 60256 62100.00000 0 -1776176.210 -23205631.573 -10449505.354 10 0 60256 63000.00000 0 -1795725.440 -24322070.755 -7492860.930 10 0 60256 63900.00000 0 -1910068.421 -25061532.334 -4390743.349 10 0 60256 64800.00000 0 -2066604.789 -25403890.811 -1203392.098 10 0 60256 65700.00000 0 -2210310.786 -25342106.129 2007316.842 10 0 60256 66600.00000 0 -2286308.545 -24882475.377 5179071.978 10 0 60256 67500.00000 0 -2242430.160 -24044345.144 8250334.427 10 0 60256 68400.00000 0 -2031667.757 -22859297.162 11161529.626 10 0 60256 69300.00000 0 -1614405.792 -21369841.828 13856199.487 10 0 60256 70200.00000 0 -960341.017 -19627674.669 16282092.873 10 0 60256 71100.00000 0 -50008.826 -17691568.864 18392173.630 10 0 60256 72000.00000 0 1124148.765 -15624991.855 20145527.142 10 0 60256 72900.00000 0 2557219.071 -13493545.328 21508148.507 10 0 60256 73800.00000 0 4231783.206 -11362334.789 22453597.761 10 0 60256 74700.00000 0 6118411.681 -9293377.761 22963510.043 10 0 60256 75600.00000 0 8176671.788 -7343157.681 23027951.318 10 0 60256 76500.00000 0 10356606.227 -5560424.483 22645613.030 10 0 60256 77400.00000 0 12600622.864 -3984332.569 21823841.858 10 0 60256 78300.00000 0 14845718.431 -2642992.891 20578503.696 10 0 60256 79200.00000 0 17025944.924 -1552498.790 18933683.869 10 0 60256 80100.00000 0 19075017.051 -716465.653 16921228.590 10 0 60256 81000.00000 0 20928952.875 -126103.159 14580135.612 10 0 60256 81900.00000 0 22528637.940 239183.339 11955804.914 10 0 60256 82800.00000 0 23822205.888 410687.870 9099163.168 10 0 60256 83700.00000 0 24767135.699 428842.174 6065678.298 10 0 60256 84600.00000 0 25331977.368 341263.546 2914282.953 10 0 60256 85500.00000 0 25497632.865 200495.136 -293772.222 10 0 60257 0.00000 0 25258137.946 61534.933 -3496112.664 10 0 60257 900.00000 0 24620911.194 -20741.188 -6630459.261 10 0 60257 1800.00000 0 23606459.659 5847.953 -9635844.207 10 0 60257 2700.00000 0 22247552.762 188330.422 -12453804.619 10 0 60257 3600.00000 0 20587899.246 566342.429 -15029525.587 10 0 60257 4500.00000 0 18680382.780 1170205.098 -17312911.423 10 0 60257 5400.00000 0 16584930.531 2019399.276 -19259563.502 10 0 60257 6300.00000 0 14366104.324 3121503.877 -20831645.447 10 0 60257 7200.00000 0 12090515.603 4471643.549 -21998618.772 10 0 60257 8100.00000 0 9824172.504 6052469.842 -22737834.919 10 0 60257 9000.00000 0 7629869.879 7834677.528 -23034972.525 10 0 60257 9900.00000 0 5564731.050 9778035.121 -22884311.863 10 0 60257 10800.00000 0 3678003.335 11832887.084 -22288841.582 10 0 60257 11700.00000 0 2009198.521 13942065.431 -21260196.078 10 0 60257 12600.00000 0 586654.813 16043131.268 -19818425.012 10 0 60257 13500.00000 0 -573420.986 18070852.980 -17991599.667 10 0 60257 14400.00000 0 -1467392.544 19959817.891 -15815263.883 10 0 60257 15300.00000 0 -2104097.492 21647068.468 -13331740.266 10 0 60257 16200.00000 0 -2504221.043 23074653.126 -10589305.185 10 0 60257 17100.00000 0 -2699167.608 24191985.142 -7641248.565 10 0 60257 18000.00000 0 -2729479.354 24957911.136 -4544836.872 10 0 60257 18900.00000 0 -2642869.646 25342402.734 -1360199.551 10 0 60257 19800.00000 0 -2491955.448 25327800.796 1850839.254 10 0 60257 20700.00000 0 -2331785.331 24909560.353 5025960.767 10 0 60257 21600.00000 0 -2217268.219 24096465.355 8103559.926 10 0 60257 22500.00000 0 -2200612.029 22910304.552 11023938.482 10 0 60257 23400.00000 0 -2328880.762 21385022.342 13730459.644 10 0 60257 24300.00000 0 -2641773.448 19565380.327 16170642.097 10 0 60257 25200.00000 0 -3169718.858 17505185.535 18297172.549 10 0 60257 26100.00000 0 -3932366.587 15265159.204 20068817.686 10 0 60257 27000.00000 0 -4937538.369 12910534.662 21451218.502 10 0 60257 27900.00000 0 -6180684.356 10508483.839 22417552.325 10 0 60257 28800.00000 0 -7644868.000 8125478.822 22949050.303 10 0 60257 29700.00000 0 -9301281.253 5824697.314 23035360.835 10 0 60257 30600.00000 0 -11110269.902 3663578.885 22674752.173 10 0 60257 31500.00000 0 -13022827.546 1691632.666 21874150.254 10 0 60257 32400.00000 0 -14982497.384 -51413.319 20649010.706 10 0 60257 33300.00000 0 -16927603.789 -1537045.015 19023026.947 10 0 60257 34200.00000 0 -18793721.752 -2748918.413 17027679.205 10 0 60257 35100.00000 0 -20516281.980 -3683299.604 14701632.285 10 0 60257 36000.00000 0 -22033203.400 -4348970.920 12089992.798 10 0 60257 36900.00000 0 -23287443.058 -4766607.560 9243439.405 10 0 60257 37800.00000 0 -24229356.572 -4967651.385 6217242.362 10 0 60257 38700.00000 0 -24818769.594 -4992729.705 3070190.969 10 0 60257 39600.00000 0 -25026672.549 -4889686.315 -136550.239 10 0 60257 40500.00000 0 -24836466.679 -4711308.645 -3340634.041 10 0 60257 41400.00000 0 -24244707.962 -4512847.929 -6479748.136 10 0 60257 42300.00000 0 -23261316.857 -4349438.336 -9492833.327 10 0 60257 43200.00000 0 -21909244.455 -4273525.379 -12321277.734 10 0 60257 44100.00000 0 -20223608.441 -4332413.568 -14910063.034 10 0 60257 45000.00000 0 -18250334.982 -4566038.230 -17208839.685 10 0 60257 45900.00000 0 -16044363.394 -5005056.793 -19172909.742 10 0 60257 46800.00000 0 -13667488.907 -5669341.162 -20764097.889 10 0 60257 47700.00000 0 -11185933.901 -6566935.699 -21951493.712 10 0 60257 48600.00000 0 -8667749.227 -7693525.492 -22712051.012 10 0 60257 49500.00000 0 -6180154.014 -9032437.983 -23031032.850 10 0 60257 50400.00000 0 -3786924.744 -10555178.478 -22902294.127 10 0 60257 51300.00000 0 -1545941.921 -12222477.563 -22328396.653 10 0 60257 52200.00000 0 493004.160 -13985807.006 -21320554.873 10 0 60257 53100.00000 0 2290058.050 -15789300.962 -19898413.613 10 0 60257 54000.00000 0 3816718.533 -17572002.380 -18089662.348 10 0 60257 54900.00000 0 5056774.927 -19270340.811 -15929493.600 10 0 60257 55800.00000 0 6006722.750 -20820738.027 -13459916.007 10 0 60257 56700.00000 0 6675643.023 -22162232.478 -10728935.426 10 0 60257 57600.00000 0 7084551.949 -23239012.694 -7789619.974 10 0 60257 58500.00000 0 7265249.873 -24002753.482 -4699067.295 10 0 60257 59400.00000 0 7258719.495 -24414656.985 -1517294.221 10 0 60257 60300.00000 0 7113142.113 -24447113.037 1693929.410 10 0 60257 61200.00000 0 6881616.675 -24084909.221 4872279.865 10 0 60257 62100.00000 0 6619678.845 -23325939.904 7956088.079 10 0 60257 63000.00000 0 6382725.449 -22181384.649 10885534.115 10 0 60257 63900.00000 0 6223453.530 -20675348.503 13603804.279 10 0 60257 64800.00000 0 6189422.374 -18843979.238 16058188.657 10 0 60257 65700.00000 0 6320841.494 -16734098.266 18201098.155 10 0 60257 66600.00000 0 6648677.941 -14401402.122 19990981.812 10 0 60257 67500.00000 0 7193162.764 -11908309.051 21393127.264 10 0 60257 68400.00000 0 7962759.749 -9321539.681 22380329.565 10 0 60257 69300.00000 0 8953640.232 -6709531.628 22933415.977 10 0 60257 70200.00000 0 10149686.736 -4139794.526 23041617.127 10 0 60257 71100.00000 0 11523026.290 -1676314.228 22702777.588 10 0 60257 72000.00000 0 13035072.247 622887.011 21923401.795 10 0 60257 72900.00000 0 14638032.307 2707934.130 20718534.138 10 0 60257 73800.00000 0 16276821.002 4538936.803 19111474.950 10 0 60257 74700.00000 0 17891297.819 6087405.299 17133337.119 10 0 60257 75600.00000 0 19418738.342 7337186.338 14822450.975 10 0 60257 76500.00000 0 20796435.599 8284880.525 12223628.047 10 0 60257 77400.00000 0 21964322.933 8939724.319 9387297.112 10 0 60257 78300.00000 0 22867508.310 9322942.068 6368528.686 10 0 60257 79200.00000 0 23458613.219 9466595.766 3225966.460 10 0 60257 80100.00000 0 23699817.132 9411981.554 20686.474 10 0 60257 81000.00000 0 23564520.499 9207641.238 -3184993.616 10 0 60257 81900.00000 0 23038555.250 8907073.598 -6328731.457 10 0 60257 82800.00000 0 22120890.863 8566243.231 -9349378.669 10 0 60257 83700.00000 0 20823805.219 8240993.247 -12188176.765 10 0 60257 84600.00000 0 19172512.269 7984472.378 -14789906.231 10 0 60257 85500.00000 0 17204261.531 7844686.358 -17103965.693 10 0 60258 0.00000 0 14966946.969 7862278.091 -19085359.518 10 0 60258 900.00000 0 12517282.028 8068631.303 -20695575.399 10 0 60258 1800.00000 0 9918620.147 8484378.410 -21903332.197 10 0 60258 2700.00000 0 7238507.697 9118376.133 -22685187.264 10 0 60258 3600.00000 0 4546074.234 9967192.521 -23025989.070 10 0 60258 4500.00000 0 1909367.484 11015127.292 -22919167.862 10 0 60258 5400.00000 0 -607256.208 12234764.944 -22366859.015 10 0 60258 6300.00000 0 -2945577.959 13588037.652 -21379857.049 10 0 60258 7200.00000 0 -5055697.969 15027753.514 -19977401.556 10 0 60258 8100.00000 0 -6897862.915 16499526.201 -18186799.355 10 0 60258 9000.00000 0 -8443864.264 17944025.167 -16042890.357 10 0 60258 9900.00000 0 -9677950.578 19299452.099 -13587367.505 10 0 60258 10800.00000 0 -10597217.290 20504139.703 -10867964.043 10 0 60258 11700.00000 0 -11211459.277 21499163.724 -7937523.852 10 0 60258 12600.00000 0 -11542494.057 22230858.449 -4852973.058 10 0 60258 13500.00000 0 -11622985.610 22653129.918 -1674212.977 10 0 60258 14400.00000 0 -11494819.773 22729469.571 1537043.901 10 0 60258 15300.00000 0 -11207100.906 22434583.601 4718472.006 10 0 60258 16200.00000 0 -10813855.337 21755569.441 7808341.413 10 0 60258 17100.00000 0 -10371539.272 20692589.895 10746713.593 10 0 60258 18000.00000 0 -9936456.890 19259016.442 13476600.950 10 0 60258 18900.00000 0 -9562197.822 17481035.481 15945067.817 10 0 60258 19800.00000 0 -9297202.234 15396733.649 18104251.919 10 0 60258 20700.00000 0 -9182556.081 13054699.949 19912287.011 10 0 60258 21600.00000 0 -9250109.324 10512202.377 21334109.413 10 0 60258 22500.00000 0 -9520996.230 7833014.145 22342133.565 10 0 60258 23400.00000 0 -10004620.070 5084979.007 22916784.095 10 0 60258 24300.00000 0 -10698145.146 2337415.734 23046874.638 10 0 60258 25200.00000 0 -11586518.017 -341531.660 22729826.345 10 0 60258 26100.00000 0 -12643017.794 -2887489.126 21971721.870 10 0 60258 27000.00000 0 -13830313.437 -5242286.634 20787193.511 10 0 60258 27900.00000 0 -15101984.842 -7356131.032 19199147.101 10 0 60258 28800.00000 0 -16404445.027 -9189428.254 17238326.230 10 0 60258 29700.00000 0 -17679183.829 -10714179.769 14942724.307 10 0 60258 30600.00000 0 -18865239.715 -11914895.625 12356854.913 10 0 60258 31500.00000 0 -19901796.359 -12788986.468 9530893.747 10 0 60258 32400.00000 0 -20730794.956 -13346618.529 6519708.165 10 0 60258 33300.00000 0 -21299452.071 -13610038.105 3381792.723 10 0 60258 34200.00000 0 -21562576.365 -13612394.421 178131.383 10 0 60258 35100.00000 0 -21484585.646 -13396110.994 -3028991.291 10 0 60258 36000.00000 0 -21041138.129 -13010874.954 -6177206.313 10 0 60258 36900.00000 0 -20220307.942 -12511330.063 -9205279.403 10 0 60258 37800.00000 0 -19023254.191 -11954571.846 -12054308.543 10 0 60258 38700.00000 0 -17464354.306 -11397551.716 -14668875.838 10 0 60258 39600.00000 0 -15570795.061 -10894500.763 -16998130.565 10 0 60258 40500.00000 0 -13381637.756 -10494483.010 -18996781.809 10 0 60258 41400.00000 0 -10946396.101 -10239182.208 -20625981.147 10 0 60258 42300.00000 0 -8323185.994 -10161016.211 -21854078.132 10 0 60258 43200.00000 0 -5576524.115 -10281658.826 -22657234.106 10 0 60258 44100.00000 0 -2774866.924 -10611031.713 -23019882.761 10 0 60258 45000.00000 0 12007.710 -11146808.837 -22935028.935 10 0 60258 45900.00000 0 2715667.662 -11874454.377 -22404380.287 10 0 60258 46800.00000 0 5271632.099 -12767792.424 -21438309.699 10 0 60258 47700.00000 0 7621807.736 -13790084.438 -20055649.450 10 0 60258 48600.00000 0 9716655.335 -14895569.117 -18283321.345 10 0 60258 49500.00000 0 11516997.366 -16031399.856 -16155810.086 10 0 60258 50400.00000 0 12995392.699 -17139898.273 -13714490.137 10 0 60258 51300.00000 0 14137022.371 -18161028.949 -11006819.179 10 0 60258 52200.00000 0 14940050.918 -19034991.162 -8085413.790 10 0 60258 53100.00000 0 15415449.655 -19704818.428 -5007025.426 10 0 60258 54000.00000 0 15586290.912 -20118876.257 -1831436.717 10 0 60258 54900.00000 0 15486544.314 -20233152.821 1379700.314 10 0 60258 55800.00000 0 15159427.109 -20013245.875 4564061.257 10 0 60258 56700.00000 0 14655379.153 -19435962.134 7659858.110 10 0 60258 57600.00000 0 14029748.802 -18490461.582 10607036.266 10 0 60258 58500.00000 0 13340287.910 -17178898.315 13348436.401 10 0 60258 59400.00000 0 12644561.895 -15516530.676 15830898.887 10 0 60258 60300.00000 0 11997384.148 -13531295.527 18006289.674 10 0 60258 61200.00000 0 11448382.736 -11262863.848 19832428.204 10 0 60258 62100.00000 0 11039801.607 -8761216.303 21273900.057 10 0 60258 63000.00000 0 10804628.487 -6084797.141 22302739.229 10 0 60258 63900.00000 0 10765127.888 -3298322.209 22898967.500 10 0 60258 64800.00000 0 10931840.758 -470330.935 23050980.940 10 0 60258 65700.00000 0 11303092.820 2329417.385 22755776.394 10 0 60258 66600.00000 0 11865032.562 5032596.177 22019013.565 10 0 60258 67500.00000 0 12592197.842 7574904.233 20854911.259 10 0 60258 68400.00000 0 13448588.056 9898491.899 19285979.206 10 0 60258 69300.00000 0 14389197.701 11954120.920 17342589.934 10 0 60258 70200.00000 0 15361947.779 13702968.848 15062398.024 10 0 60258 71100.00000 0 16309934.574 15118003.428 12489617.085 10 0 60258 72000.00000 0 17173901.694 16184870.011 9674167.602 10 0 60258 72900.00000 0 17894831.482 16902255.152 6670711.519 10 0 60258 73800.00000 0 18416546.498 17281711.633 3537591.909 10 0 60258 74700.00000 0 18688210.780 17346952.410 335698.263 10 0 60258 75600.00000 0 18666624.491 17132643.656 -2872720.365 10 0 60258 76500.00000 0 18318214.063 16682748.389 -6025270.733 10 0 60258 77400.00000 0 17620632.593 16048491.191 -9060634.935 10 0 60258 78300.00000 0 16563901.669 15286030.791 -11919769.526 10 0 60258 79200.00000 0 15151045.196 14453939.620 -14547060.148 10 0 60258 80100.00000 0 13398187.347 13610597.691 -16891408.427 10 0 60258 81000.00000 0 11334109.482 12811611.678 -18907229.506 10 0 60258 81900.00000 0 8999283.736 12107368.758 -20555340.518 10 0 60258 82800.00000 0 6444423.079 11540828.932 -21803722.665 10 0 60258 83700.00000 0 3728607.901 11145649.125 -22628142.271 10 0 60258 84600.00000 0 917066.837 10944718.157 -23012619.075 10 0 60258 85500.00000 0 -1921296.106 10949164.121 -22949733.108 10 0 60259 0.00000 0 -4716525.341 11157875.637 -22440764.705 10 0 60259 900.00000 0 -7400281.312 11557556.894 -21495664.995 10 0 60259 1800.00000 0 -9908437.849 12123313.415 -20132858.549 10 0 60259 2700.00000 0 -12183506.974 12819743.876 -18378881.306 10 0 60259 3600.00000 0 -14176787.407 13602491.436 -16267861.485 10 0 60259 4500.00000 0 -15850149.813 14420188.968 -13840853.416 10 0 60259 5400.00000 0 -17177385.254 15216716.021 -11145037.235 10 0 60259 6300.00000 0 -18145061.822 15933672.094 -8232799.968 10 0 60259 7200.00000 0 -18752854.965 16512961.761 -5160715.967 10 0 60259 8100.00000 0 -19013339.058 16899382.362 -1988446.586 10 0 60259 9000.00000 0 -18951250.383 17043104.914 1222419.315 10 0 60259 9900.00000 0 -18602253.751 16901943.331 4409561.257 10 0 60259 10800.00000 0 -18011265.844 16443316.048 7511135.992 10 0 60259 11700.00000 0 -17230406.806 15645817.086 10466975.683 10 0 60259 12600.00000 0 -16316667.064 14500330.064 13219752.109 10 0 60259 13500.00000 0 -15329388.083 13010637.901 15716084.449 10 0 60259 14400.00000 0 -14327663.254 11193501.997 17907569.495 10 0 60259 15300.00000 0 -13367768.189 9078206.887 19751714.811 10 0 60259 16200.00000 0 -12500728.176 6705588.474 21212757.371 10 0 60259 17100.00000 0 -11770124.522 4126585.309 22262352.531 10 0 60259 18000.00000 0 -11210231.451 1400372.057 22880120.621 10 0 60259 18900.00000 0 -10844561.229 -1407848.573 23054041.101 10 0 60259 19800.00000 0 -10684878.271 -4229305.121 22780686.983 10 0 60259 20700.00000 0 -10730723.401 -6994267.163 22065294.987 10 0 60259 21600.00000 0 -10969468.339 -9634698.626 20921669.875 10 0 60259 22500.00000 0 -11376898.387 -12086845.681 19371924.219 10 0 60259 23400.00000 0 -11918299.359 -14293652.661 17446057.935 10 0 60259 24300.00000 0 -12550003.577 -16206906.335 15181384.776 10 0 60259 25200.00000 0 -13221330.484 -17789019.796 12621815.988 10 0 60259 26100.00000 0 -13876840.557 -19014381.826 9817014.117 10 0 60259 27000.00000 0 -14458807.738 -19870215.649 6821432.746 10 0 60259 27900.00000 0 -14909805.980 -20356911.196 3693260.354 10 0 60259 28800.00000 0 -15175300.285 -20487817.062 493288.722 10 0 60259 29700.00000 0 -15206132.047 -20288501.187 -2716271.866 10 0 60259 30600.00000 0 -14960792.629 -19795511.598 -5873007.167 10 0 60259 31500.00000 0 -14407387.872 -19054690.017 -8915518.866 10 0 60259 32400.00000 0 -13525209.290 -18119110.114 -11784625.231 10 0 60259 33300.00000 0 -12305844.204 -17046728.030 -14424518.435 10 0 60259 34200.00000 0 -10753776.670 -15897845.106 -16783855.236 10 0 60259 35100.00000 0 -8886452.708 -14732490.554 -18816759.300 10 0 60259 36000.00000 0 -6733805.954 -13607835.037 -20483715.394 10 0 60259 36900.00000 0 -4337262.726 -12575744.581 -21752337.966 10 0 60259 37800.00000 0 -1748267.336 -11680577.987 -22597999.372 10 0 60259 38700.00000 0 973611.417 -10957320.374 -23004305.892 10 0 60259 39600.00000 0 3762914.155 -10430131.083 -22963412.681 10 0 60259 40500.00000 0 6550772.709 -10111366.453 -22476172.033 10 0 60259 41400.00000 0 9267537.049 -10001117.916 -21552112.466 10 0 60259 42300.00000 0 11845438.606 -10087284.103 -20209249.339 10 0 60259 43200.00000 0 14221179.843 -10346173.133 -18473730.903 10 0 60259 44100.00000 0 16338343.017 -10743609.026 -16379326.742 10 0 60259 45000.00000 0 18149518.620 -11236494.954 -13966768.561 10 0 60259 45900.00000 0 19618065.664 -11774766.859 -11282956.139 10 0 60259 46800.00000 0 20719431.381 -12303654.534 -8380043.849 10 0 60259 47700.00000 0 21441976.241 -12766154.302 -5314425.569 10 0 60259 48600.00000 0 21787270.940 -13105608.523 -2145637.845 10 0 60259 49500.00000 0 21769854.133 -13268282.658 1064797.232 10 0 60259 50400.00000 0 21416462.224 -13205830.716 4254566.673 10 0 60259 51300.00000 0 20764764.731 -12877544.732 7361775.359 10 0 60259 52200.00000 0 19861659.291 -12252292.988 10326145.310 10 0 60259 53100.00000 0 18761198.801 -11310064.926 13090182.113 10 0 60259 54000.00000 0 17522238.346 -10043057.247 15600286.003 10 0 60259 54900.00000 0 16205901.048 -8456254.934 17807786.403 10 0 60259 55800.00000 0 14872969.280 -6567482.087 19669880.291 10 0 60259 56700.00000 0 13581310.439 -4406919.503 21150456.866 10 0 60259 57600.00000 0 12383444.776 -2016108.021 22220793.231 10 0 60259 58500.00000 0 11324356.627 553522.074 22860108.229 10 0 60259 59400.00000 0 10439640.069 3242535.781 23055964.275 10 0 60259 60300.00000 0 9754056.036 5985715.370 22804509.735 10 0 60259 61200.00000 0 9280560.827 8714528.819 22110557.207 10 0 60259 62100.00000 0 9019846.368 11359743.579 20987495.951 10 0 60259 63000.00000 0 8960411.354 13854078.443 19457039.658 10 0 60259 63900.00000 0 9079160.337 16134784.329 17548813.676 10 0 60259 64800.00000 0 9342505.799 18146047.481 15299788.792 10 0 60259 65700.00000 0 9707927.088 19841115.532 12753571.576 10 0 60259 66600.00000 0 10125920.828 21184057.988 9959564.193 10 0 60259 67500.00000 0 10542260.671 22151087.738 6972009.307 10 0 60259 68400.00000 0 10900470.902 22731388.217 3848938.154 10 0 60259 69300.00000 0 11144409.054 22927411.453 651042.155 10 0 60259 70200.00000 0 11220847.647 22754634.413 -2559509.831 10 0 60259 71100.00000 0 11081944.950 22240783.973 -5720285.139 10 0 60259 72000.00000 0 10687499.113 21424563.459 -8769807.452 10 0 60259 72900.00000 0 10006889.052 20353934.737 -11648758.958 10 0 60259 73800.00000 0 9020618.673 19084028.787 -14301140.326 10 0 60259 74700.00000 0 7721397.895 17674773.451 -16675365.158 10 0 60259 75600.00000 0 6114713.532 16188338.873 -18725267.120 10 0 60259 76500.00000 0 4218864.783 14686508.768 -20410999.864 10 0 60259 77400.00000 0 2064460.749 13228088.527 -21699812.142 10 0 60259 78300.00000 0 -306599.934 11866459.301 -22566683.222 10 0 60259 79200.00000 0 -2842625.483 10647380.746 -22994806.591 10 0 60259 80100.00000 0 -5484041.610 9607134.342 -22975912.964 10 0 60259 81000.00000 0 -8165637.312 8771084.611 -22510426.798 10 0 60259 81900.00000 0 -10819052.884 8152717.779 -21607453.680 10 0 60259 82800.00000 0 -13375407.050 7753197.280 -20284599.157 10 0 60259 83700.00000 0 -15767954.431 7561453.684 -18567622.750 10 0 60259 84600.00000 0 -17934663.279 7554804.189 -16489933.949 10 0 60259 85500.00000 0 -19820606.691 7700074.576 -14091940.033 99